Home > Time Zones > World Clock > Weather > India > Theni > Past weeks

Flag for India Weather past 2 weeks in Theni, Tamil Nadu, India

Now
77 °F

Fog.


Feels Like: 78 °F
Forecast: 73 / 96 °F
Wind: 9 mph from Southwest

Location: Coimbatore / Peelamedu

Current Time: Sep 1, 2015 at 1:46:30 AM

Latest Report: Sep 1, 2015 at 12:30 AM


Visibility: 3 mi

Pressure: 29.89 "Hg

Humidity: 83%

Dew point: 72 °F

Location of TheniLocation

Historic Weather in Theni — Graph

°F

Theni temperature yesterday

Maximum temperature yesterday: 93 °F (at 1:30 PM)
Minimum temperature yesterday: 75 °F (at 2:30 AM)
Average temperature yesterday: 82 °F

Past Weeks' High & Low Weather Summary

 TemperatureHumidityPressure
High93 °F (Aug 18, 2:30 PM)100% (Aug 17, 2:30 AM)30.48 "Hg (Aug 17, 2:30 AM)
Low72 °F (Aug 26, 6:30 AM)39% (Aug 31, 1:30 PM)29.74 "Hg (Aug 17, 4:00 PM)
Average82 °F71%29.86 "Hg
* Reported Aug 17 2:30 AM — Sep 1 12:30 AM, Theni, Weather by CustomWeather, © 2015

Note: Actual official high and low records may vary slightly from our data, if they occured in-between our weather recording intervals... More about our weather records

Advertising

Theni weather history for previous 24 hours

 ConditionsComfort  
Time TempWeatherWind HumidityBarometerVisibility
12:30 AM
Tue, Sep 1
77 °FFog.9 mph83%29.89 "Hg3 mi
12:00 AM77 °FFog.9 mph83%29.89 "Hg3 mi
11:30 PM
Mon, Aug 31
79 °FFog.7 mph84%29.89 "Hg3 mi
11:00 PM77 °FFog.9 mph83%29.92 "Hg3 mi
10:30 PM79 °FFog.9 mph79%29.92 "Hg3 mi
10:00 PM79 °FHaze.12 mph79%29.89 "Hg3 mi
9:30 PM79 °FHaze.9 mph74%29.89 "Hg3 mi
9:00 PM81 °FHaze.9 mph70%29.89 "Hg3 mi
8:30 PM81 °FHaze.9 mph70%29.86 "Hg3 mi
7:30 PM82 °FHaze.12 mph66%29.86 "Hg3 mi
6:30 PM84 °FPassing clouds.9 mph66%29.83 "Hg4 mi
5:30 PM86 °FScattered clouds.9 mph62%29.83 "Hg4 mi
5:00 PM88 °FScattered clouds.9 mph59%29.80 "Hg4 mi
4:30 PM88 °FScattered clouds.10 mph55%29.80 "Hg4 mi
3:30 PM90 °FPassing clouds.15 mph52%29.83 "Hg5 mi
2:30 PM93 °FPassing clouds.12 mph47%29.83 "Hg5 mi
2:00 PM93 °FScattered clouds.12 mph44%29.83 "Hg5 mi
1:30 PM93 °FScattered clouds.10 mph39%29.86 "Hg5 mi
12:30 PM90 °FScattered clouds.8 mph49%29.89 "Hg4 mi
11:30 AM88 °FScattered clouds.7 mph55%29.92 "Hg4 mi
11:00 AM86 °FScattered clouds.7 mph59%29.92 "Hg4 mi
10:00 AM84 °FScattered clouds.6 mph66%29.92 "Hg4 mi
8:30 AM81 °FHaze.3 mph74%29.92 "Hg3 mi
7:30 AM77 °FFog.5 mph83%29.89 "Hg2 mi
7:00 AM75 °FFog.6 mph89%29.89 "Hg2 mi
6:30 AM75 °FFog.6 mph89%29.86 "Hg2 mi
6:00 AM75 °FFog.5 mph89%29.86 "Hg2 mi
5:30 AM75 °FFog.6 mph89%29.86 "Hg2 mi
4:30 AM75 °FFog.7 mph89%29.86 "Hg2 mi
4:00 AM75 °FFog.6 mph89%29.86 "Hg2 mi
3:30 AM75 °FFog.5 mph89%29.86 "Hg2 mi
3:00 AM75 °FHaze.5 mph89%29.86 "Hg2 mi
2:30 AM75 °FHaze.6 mph89%29.86 "Hg2 mi
Weather by CustomWeather, © 2015

See weather overviewHow to use our weather pages